When you browse on this site, cookies collect data to enhance your experience and personalize the content and advertising you see.
Visit our Privacy Policy to learn more. By continuing to use the site, you agree to this use of cookies and data.
EN

Hourly Weather Bamor Kalan

Today, 8 July, Wednesday

Time Temperature Precipitation Wind Pressure Humidity
00:00 +32°C° 0.4 mm 4 mps 723 mmHg 75%
01:00 +30°C° 0.4 mm 3 mps 722 mmHg 76%
02:00 +30°C° 0.4 mm 3 mps 722 mmHg 78%
03:00 +30°C° 0 mm 3 mps 722 mmHg 78%
04:00 +30°C° 0 mm 3 mps 722 mmHg 78%
05:00 +30°C° 0 mm 3 mps 722 mmHg 81%
06:00 +30°C° 0.3 mm 3 mps 722 mmHg 78%
07:00 +31°C° 0.3 mm 3 mps 722 mmHg 75%
08:00 +33°C° 0.3 mm 4 mps 723 mmHg 72%
09:00 +34°C° 1.6 mm 4 mps 723 mmHg 67%
10:00 +35°C° 1.6 mm 3 mps 723 mmHg 62%
11:00 +36°C° 1.6 mm 3 mps 723 mmHg 57%
12:00 +36°C° 2.6 mm 3 mps 722 mmHg 59%
13:00 +36°C° 2.6 mm 4 mps 722 mmHg 60%
14:00 +35°C° 2.6 mm 4 mps 721 mmHg 61%
15:00 +35°C° 0.4 mm 3 mps 721 mmHg 61%
16:00 +35°C° 0.4 mm 3 mps 721 mmHg 62%
17:00 +34°C° 0.4 mm 2 mps 721 mmHg 62%
18:00 +34°C° 0.1 mm 3 mps 721 mmHg 64%
19:00 +34°C° 0.1 mm 3 mps 721 mmHg 66%
20:00 +33°C° 0.1 mm 3 mps 722 mmHg 69%
21:00 +33°C° 0 mm 4 mps 722 mmHg 71%
22:00 +32°C° 0 mm 5 mps 722 mmHg 73%
23:00 +30°C° 0 mm 6 mps 722 mmHg 76%

Tomorrow, 9 July, Thursday

Time Temperature Precipitation Wind Pressure Humidity
00:00 +30°C° 0 mm 6 mps 722 mmHg 75%
01:00 +30°C° 0 mm 6 mps 721 mmHg 74%
02:00 +30°C° 0 mm 5 mps 721 mmHg 74%
03:00 +30°C° 0 mm 5 mps 721 mmHg 74%
04:00 +30°C° 0 mm 6 mps 721 mmHg 75%
05:00 +30°C° 0 mm 6 mps 721 mmHg 76%
06:00 +32°C° 0.2 mm 6 mps 721 mmHg 74%
07:00 +32°C° 0.2 mm 7 mps 721 mmHg 72%
08:00 +33°C° 0.2 mm 7 mps 722 mmHg 70%
09:00 +34°C° 3.6 mm 8 mps 722 mmHg 68%
10:00 +34°C° 3.6 mm 8 mps 721 mmHg 66%
11:00 +35°C° 3.6 mm 8 mps 721 mmHg 65%
12:00 +35°C° 3 mm 8 mps 721 mmHg 65%
13:00 +35°C° 3 mm 7 mps 720 mmHg 65%
14:00 +34°C° 3 mm 6 mps 720 mmHg 66%
15:00 +34°C° 0.5 mm 5 mps 719 mmHg 66%
16:00 +34°C° 0.5 mm 4 mps 719 mmHg 66%
17:00 +34°C° 0.5 mm 3 mps 719 mmHg 67%
18:00 +34°C° 0 mm 3 mps 719 mmHg 67%
19:00 +33°C° 0 mm 4 mps 720 mmHg 67%
20:00 +33°C° 0 mm 4 mps 720 mmHg 67%
21:00 +33°C° 0 mm 5 mps 720 mmHg 67%
22:00 +33°C° 0 mm 6 mps 720 mmHg 67%
23:00 +33°C° 0 mm 6 mps 720 mmHg 67%

Day after tomorrow, 10 July, Friday

Time Temperature Precipitation Wind Pressure Humidity
00:00 +32°C° 0 mm 7 mps 720 mmHg 68%
01:00 +32°C° 0 mm 7 mps 719 mmHg 69%
02:00 +32°C° 0 mm 7 mps 719 mmHg 71%
03:00 +30°C° 0 mm 7 mps 719 mmHg 72%
04:00 +31°C° 0 mm 8 mps 719 mmHg 73%
05:00 +29°C° 0 mm 8 mps 719 mmHg 75%
06:00 +31°C° 0 mm 8 mps 720 mmHg 74%
07:00 +32°C° 0 mm 8 mps 720 mmHg 72%
08:00 +32°C° 0 mm 9 mps 720 mmHg 71%
09:00 +34°C° 0 mm 8 mps 720 mmHg 66%
10:00 +35°C° 0 mm 8 mps 721 mmHg 60%
11:00 +37°C° 0 mm 8 mps 721 mmHg 55%
12:00 +38°C° 0 mm 8 mps 720 mmHg 53%
13:00 +38°C° 0 mm 8 mps 720 mmHg 52%
14:00 +38°C° 0 mm 8 mps 719 mmHg 50%
15:00 +38°C° 0 mm 7 mps 719 mmHg 51%
16:00 +38°C° 0 mm 7 mps 719 mmHg 52%
17:00 +36°C° 0 mm 7 mps 719 mmHg 53%
18:00 +36°C° 0 mm 6 mps 719 mmHg 55%
19:00 +35°C° 0 mm 5 mps 719 mmHg 57%
20:00 +35°C° 0 mm 5 mps 720 mmHg 59%
21:00 +34°C° 0 mm 5 mps 720 mmHg 59%
22:00 +34°C° 0 mm 6 mps 720 mmHg 59%
23:00 +34°C° 0 mm 7 mps 720 mmHg 60%

11 July, Saturday

Time Temperature Precipitation Wind Pressure Humidity
00:00 +33°C° 0 mm 7 mps 720 mmHg 63%
01:00 +32°C° 0 mm 7 mps 719 mmHg 65%
02:00 +32°C° 0 mm 7 mps 719 mmHg 68%
03:00 +32°C° 0 mm 7 mps 719 mmHg 70%
04:00 +30°C° 0 mm 7 mps 719 mmHg 72%
05:00 +30°C° 0 mm 7 mps 719 mmHg 74%
06:00 +31°C° 0 mm 8 mps 719 mmHg 72%
07:00 +32°C° 0 mm 8 mps 720 mmHg 69%
08:00 +33°C° 0 mm 8 mps 720 mmHg 66%
09:00 +34°C° 0 mm 8 mps 720 mmHg 62%
10:00 +35°C° 0 mm 7 mps 720 mmHg 57%
11:00 +36°C° 0 mm 7 mps 720 mmHg 52%
12:00 +38°C° 0 mm 7 mps 720 mmHg 50%
13:00 +39°C° 0 mm 7 mps 719 mmHg 47%
14:00 +40°C° 0 mm 7 mps 719 mmHg 44%
15:00 +39°C° 0 mm 6 mps 719 mmHg 44%
16:00 +39°C° 0 mm 6 mps 718 mmHg 45%
17:00 +39°C° 0 mm 6 mps 718 mmHg 45%
18:00 +37°C° 0 mm 5 mps 718 mmHg 47%
19:00 +36°C° 0 mm 5 mps 719 mmHg 50%
20:00 +36°C° 0 mm 4 mps 719 mmHg 52%
21:00 +35°C° 0.1 mm 4 mps 719 mmHg 54%
22:00 +35°C° 0.1 mm 5 mps 720 mmHg 57%
23:00 +34°C° 0.1 mm 5 mps 720 mmHg 59%

12 July, Sunday

Time Temperature Precipitation Wind Pressure Humidity
00:00 +34°C° 0 mm 6 mps 720 mmHg 61%
01:00 +33°C° 0 mm 6 mps 719 mmHg 63%
02:00 +33°C° 0 mm 7 mps 719 mmHg 65%
03:00 +32°C° 0 mm 7 mps 719 mmHg 67%
04:00 +32°C° 0 mm 7 mps 719 mmHg 69%
05:00 +30°C° 0 mm 7 mps 720 mmHg 71%
06:00 +32°C° 0 mm 7 mps 720 mmHg 69%
07:00 +33°C° 0 mm 7 mps 721 mmHg 67%
08:00 +33°C° 0 mm 7 mps 721 mmHg 64%
09:00 +34°C° 0.1 mm 7 mps 721 mmHg 60%
10:00 +35°C° 0.1 mm 7 mps 721 mmHg 56%
11:00 +38°C° 0.1 mm 7 mps 722 mmHg 52%
12:00 +38°C° 0 mm 7 mps 721 mmHg 50%
13:00 +39°C° 0 mm 7 mps 721 mmHg 48%
14:00 +39°C° 0 mm 6 mps 721 mmHg 46%
15:00 +39°C° 0 mm 6 mps 720 mmHg 45%
16:00 +39°C° 0 mm 6 mps 720 mmHg 44%
17:00 +39°C° 0 mm 5 mps 720 mmHg 44%
18:00 +37°C° 0 mm 5 mps 720 mmHg 46%
19:00 +37°C° 0 mm 4 mps 721 mmHg 48%
20:00 +36°C° 0 mm 3 mps 721 mmHg 50%
21:00 +36°C° 0 mm 3 mps 721 mmHg 52%
22:00 +35°C° 0 mm 3 mps 721 mmHg 53%
23:00 +35°C° 0 mm 3 mps 722 mmHg 55%

13 July, Monday

Time Temperature Precipitation Wind Pressure Humidity
00:00 +34°C° 0 mm 4 mps 721 mmHg 58%
01:00 +34°C° 0 mm 5 mps 721 mmHg 60%
02:00 +33°C° 0 mm 6 mps 721 mmHg 62%
03:00 +32°C° 0 mm 6 mps 721 mmHg 65%
04:00 +32°C° 0 mm 6 mps 721 mmHg 67%
05:00 +30°C° 0 mm 6 mps 721 mmHg 70%
06:00 +32°C° 0 mm 6 mps 721 mmHg 68%
07:00 +33°C° 0 mm 6 mps 722 mmHg 66%
08:00 +33°C° 0 mm 6 mps 722 mmHg 64%
09:00 +35°C° 0.5 mm 6 mps 722 mmHg 60%
10:00 +36°C° 0.5 mm 5 mps 722 mmHg 55%
11:00 +37°C° 0.5 mm 5 mps 722 mmHg 51%
12:00 +38°C° 0.7 mm 4 mps 722 mmHg 49%
13:00 +38°C° 0.7 mm 3 mps 721 mmHg 48%
14:00 +38°C° 0.7 mm 2 mps 721 mmHg 46%
15:00 +37°C° 0.8 mm 3 mps 720 mmHg 52%
16:00 +35°C° 0.8 mm 3 mps 720 mmHg 57%
17:00 +34°C° 0.8 mm 4 mps 720 mmHg 63%
18:00 +34°C° 0.2 mm 3 mps 720 mmHg 63%
19:00 +34°C° 0.2 mm 2 mps 721 mmHg 63%
20:00 +34°C° 0.2 mm 2 mps 721 mmHg 63%
21:00 +33°C° 0 mm 1 mps 721 mmHg 64%
22:00 +33°C° 0 mm 1 mps 722 mmHg 64%
23:00 +33°C° 0 mm 1 mps 722 mmHg 65%
Show more